Regional Weather Roundup
Issued by NWS

Home | Current Version | Previous Version | Text Only | Print | Product List | Glossary On
Versions: 1 2 3 4 5 6 7 8 9 10 11 12 13 14 15 16 17 18 19 20 21 22 23 24 25 26 27 28 29 30 31 32 33 34 35 36 37 38 39 40 41 42 43 44 45 46 47 48 49 50
000
ASUS43 KDTX 252210
RWRMI
MICHIGAN HOURLY REGIONAL WEATHER ROUNDUP
NATIONAL WEATHER SERVICE DETROIT/PONTIAC MI
500 PM EST TUE FEB 25 2020

NOTE: "FAIR" INDICATES FEW OR NO CLOUDS BELOW 12,000 FEET WITH NO
SIGNIFICANT WEATHER AND/OR OBSTRUCTION TO VISIBILITY.

MIZ047>049-052>055-059>063-066>070-074>076-081>083-252300-
SOUTHEAST LOWER MICHIGAN

CITY           SKY/WX    TMP DP  RH WIND       PRES   REMARKS
ADRIAN         CLOUDY    37  32  82 NE9       29.90R WCI  30
ALMA           CLOUDY    38  30  75 NE12      30.01R WCI  30
ANN ARBOR      CLOUDY    38  30  73 NE16G25   29.90R WCI  29
BAD AXE        CLOUDY    32  29  86 N18G26    30.01R WCI  21
CARO           CLOUDY    34  29  82 N13G20    30.00S WCI  25
DETROIT CITY   CLOUDY    39  30  70 NE16G28   29.92R WCI  30
DETROIT        CLOUDY    39  32  76 NE16G25   29.91R WCI  30
FLINT          FLURRIES  36  30  79 N20G25    29.97R WCI  25
GROSSE ILE     CLOUDY    38  32  80 NE18G24   29.90R WCI  28
HILLSDALE      DRIZZLE   35  32  89 N9        29.87S WCI  28
HOWELL         LGT SNOW  35  32  90 N8        29.93R WCI  28

CITY           SKY/WX    TMP DP  RH WIND       PRES   REMARKS
JACKSON        CLOUDY    35  32  88 N13G22    29.90S WCI  26
LAMBERTVILLE   CLOUDY    38  35  90 NE7       29.89S FOG     WCI  32
LANSING        CLOUDY    34  28  79 NE20G28   29.97R WCI  23
LAPEER         CLOUDY    37  28  71 N13G18    29.96S WCI  29
MASON          CLOUDY    34  30  86 N15G22    29.94S WCI  24
MONROE         LGT RAIN  38  33  82 NE10G18   29.89R WCI  31
MT. CLEMENS    CLOUDY    39  33  80 NE17G26   29.91S WCI  29
PONTIAC        CLOUDY    38  28  67 NE17G26   29.91S WCI  28
PORT HOPE        N/A     33  27  78 N22       30.01R WCI  21
PORT HURON     CLOUDY    36  30  80 N12G18    29.96R WCI  27
TRI CITIES     CLOUDY    34  26  72 NE15      30.03R WCI  24
MIDLAND        FAIR      37  26  64 N10G16    30.02R WCI  29
TROY           CLOUDY    39  32  76 N14G21    29.94R WCI  31
SAGINAW HB     CLOUDY    32  27  80 NE21G29   30.02R WCI  20
$$
MIZ043>046-050>051-056>058-064>065-071>073-077>080-252300-
SOUTHWEST LOWER MICHIGAN

CITY           SKY/WX    TMP DP  RH WIND       PRES   REMARKS
BATTLE CREEK   CLOUDY    36  32  85 NE14      29.92S WCI  27
BENTON HARBOR  CLOUDY    37  32  82 NE7       29.95R WCI  32
BIG RAPIDS     PTSUNNY   38  23  53 NE8       30.00S WCI  33
COLDWATER      DRIZZLE   34  34 100 N10G21    29.90R WCI  26
FREMONT        FAIR      40  26  57 NE13G18   30.00R WCI  33
HOLLAND        CLOUDY    41  30  65 E13G22    29.97R
GRAND RAPIDS   CLOUDY    37  30  75 NE13      29.97R WCI  29
IONIA          CLOUDY    37  29  72 NE15G21   29.96S WCI  28
KALAMAZOO      CLOUDY    36  31  82 NE9G21    29.93R WCI  29
LUDINGTON      FAIR      34  25  69 N14G22    30.06R WCI  25
MARSHALL       LGT RAIN  35  31  87 N6        29.91S WCI  30
MOUNT PLEASANT CLOUDY    39  26  61 NE10      30.01R WCI  32
MUSKEGON       CLOUDY    42  24  49 N13G21    29.99R
SOUTH HAVEN    CLOUDY    37  32  82 NE7       29.95R WCI  32
$$
MIZ016>042-252300-
NORTHERN LOWER MICHIGAN

CITY           SKY/WX    TMP DP  RH WIND       PRES   REMARKS
ALPENA         FAIR      31  20  63 N14       30.09S WCI  21
BEAVER ISLAND  FAIR      30  19  61 N13G22    30.16R WCI  20
BELLAIRE       FAIR      32  18  55 N6        30.12R WCI  27
CADILLAC       FAIR      32  19  60 N9G16     30.03R WCI  24
CHARLEVOIX     FAIR      32  17  55 N15       30.13R WCI  22
FRANKFORT      PTSUNNY   32  22  65 N9G16     30.13R WCI  24
GAYLORD        FAIR      30  17  58 VRB7      30.06R WCI  23
GRAYLING       FAIR      32  21  64 NE14      30.05R WCI  22
HARBOR SPRINGS FAIR      33  17  53 N10G16    30.12R WCI  24
HOUGHTON LAKE  PTSUNNY   34  21  59 N9        30.04R WCI  27
MANISTEE       FAIR      33  21  61 N6        30.09R WCI  28
OSCODA         FAIR      32  23  67 N14       30.06R WCI  22
PELLSTON       FAIR      32  17  54 N12       30.13R WCI  23
ROGERS CITY    FAIR      32  18  55 N9        30.12S WCI  24
TRAVERSE CITY  CLOUDY    33  20  58 N13G23    30.10R WCI  24
$$
MIZ007>008-015-252300-
EASTERN UPPER MICHIGAN

CITY           SKY/WX    TMP DP  RH WIND       PRES   REMARKS
KINROSS        FAIR      29  18  63 N20       30.13S WCI  16
MACKINAC ISLAN FAIR      31  18  56 N13       30.13R WCI  22
NEWBERRY       FAIR      28  15  58 N13G23    30.17R HAZE    WCI  17
S. S. MARIE    FAIR      32  18  56 NW13G21   30.14R WCI  22
MUNISING         N/A     28  20  71 N18       30.23R WCI  15
$$
MIZ004>006-011>014-085-252300-
CENTRAL UPPER MICHIGAN

CITY           SKY/WX    TMP DP  RH WIND       PRES   REMARKS
MANISTIQUE     PTSUNNY   29  19  67 N21       30.18R WCI  16
ESCANABA       CLOUDY    30  19  63 N10G20    30.21R WCI  21
MENOMINEE      PTSUNNY   32  20  61 N16G23    30.19R WCI  21
SAWYER-GWINN   FLURRIES  27  21  80 N20G28    30.20R WCI  13
$$
MIZ001>003-009>011-084-252300-
WESTERN UPPER MICHIGAN

CITY           SKY/WX    TMP DP  RH WIND       PRES   REMARKS
IRON MOUNTAIN  PTSUNNY   29  16  58 N13G24    30.19R WCI  19
HOUGHTON       CLOUDY    24  14  65 N12       30.27R WCI  13
COPPER HARBOR    N/A     24  16  71 NE13G25   30.30S WCI  12
IRONWOOD       FAIR      29  17  61 VRB5      30.28S WCI  24
$$

ABBREVIATIONS USED IN REMARKS
   TC - TEMPERATURE IN CELSIUS
  WCI - WIND CHILL INDEX
   HX - HEAT INDEX
  VSB - VISIBILITY




USA.gov is the U.S. government's official web portal to all federal, state and local government web resources and services.